Wetbulb
55.67 56.72 57.44 58.15 57.67 57.81 57.40 56.86 56.76 57.03 57.22 57.31 57.17 57.68 58.32 60.57 60.83 64.60 67.49 69.03 69.31 69.44 68.71 68.71 68.51 68.13 67.14 66.33 67.13 65.51 65.29 63.97 64.59 62.69 62.91 62.22 63.44 64.03 63.24 63.15 63.72 62.67 62.66
53.81 54.94 55.58 56.20 56.40 55.83 55.11 54.86 54.77 54.72 54.89 55.63 56.05 56.52 56.58 57.53 59.11 60.56 61.77 66.70 67.71 68.12 68.62 68.36 68.07 67.54 66.54 65.92 65.92 65.05 63.56 64.04 64.58 61.40 59.01 55.94 58.09 60.50 62.68 63.62 62.83 62.06 62.21
52.82 53.22 53.63 54.46 55.10 54.22 53.92 53.36 53.24 53.01 53.56 54.33 54.26 54.98 55.74 56.18 57.50 58.37 59.34 61.16 66.86 67.69 67.92 68.25 67.70 66.50 66.13 65.01 65.53 64.82 63.13 61.97 63.42 62.54 57.90 54.43 53.60 55.72 60.45 61.81 61.15 60.90 60.73
52.68 52.35 52.28 52.37 53.22 52.85 53.08 52.59 52.19 51.98 52.19 52.34 51.14 50.58 50.49 50.55 53.15 55.53 58.65 60.84 66.80 66.83 67.37 67.66 67.56 66.19 65.44 64.67 64.66 65.38 63.28 62.39 60.90 62.39 61.60 60.17 58.60 54.51 53.87 58.13 61.33 61.08 60.78
51.53 51.04 50.81 50.89 51.35 51.53 51.07 51.04 50.07 49.57 49.31 49.55 48.70 46.84 46.55 49.47 51.67 53.66 55.57 58.58 60.99 66.09 66.74 66.76 66.60 65.51 64.87 64.09 64.98 64.53 63.81 62.49 61.24 61.12 60.42 60.47 60.49 59.47 55.85 52.01 56.14 59.73 60.10
50.33 50.15 50.26 50.26 49.38 49.95 49.60 48.22 47.24 46.55 47.44 47.28 45.76 44.38 43.78 45.36 47.05 49.19 51.69 54.81 59.58 63.18 65.42 65.54 66.64 66.40 65.00 64.40 64.07 61.74 63.56 62.54 62.55 62.10 61.23 59.53 59.21 58.46 56.88 54.93 54.03 55.47 57.87
48.70 48.10 47.38 47.12 47.26 47.16 47.19 46.17 45.33 44.57 46.07 45.38 43.41 42.75 43.03 43.95 44.95 46.99 49.29 51.77 55.88 60.41 62.42 65.04 65.40 65.53 64.71 64.14 64.01 63.51 63.21 62.67 62.34 62.04 61.35 61.71 60.56 60.27 59.30 57.25 55.33 54.88 56.73
47.42 46.58 46.53 46.26 46.02 45.95 45.56 44.43 43.71 43.14 43.71 43.22 42.16 41.73 42.48 44.02 46.00 47.58 49.96 51.53 55.21 59.51 62.72 63.74 64.58 64.66 64.62 64.34 64.05 63.41 61.99 60.61 60.24 60.70 62.16 61.86 61.45 61.77 59.71 57.86 56.01 55.04 54.65
44.72 45.02 45.75 45.77 45.38 44.78 44.56 43.29 41.78 40.98 41.49 41.30 41.07 40.57 42.36 44.15 45.14 46.94 49.83 53.25 56.25 59.19 63.50 64.62 64.02 64.04 64.22 63.78 60.77 59.38 59.75 59.30 61.41 58.91 60.90 61.60 61.71 61.82 60.73 59.67 58.31 55.41 52.56
43.18 44.11 44.46 44.69 44.40 43.92 43.64 43.13 41.32 39.34 40.13 40.04 39.51 40.19 40.95 43.10 44.72 47.08 49.35 55.81 58.89 62.35 63.53 64.01 64.05 63.46 63.60 63.12 61.30 61.53 62.06 63.08 62.92 62.66 61.92 61.65 61.56 60.82 60.95 59.65 58.44 57.89 54.91
42.10 42.59 43.42 44.00 43.04 42.85 42.00 41.31 40.33 38.35 37.39 37.87 38.57 39.08 39.22 40.79 42.87 43.92 45.80 47.81 51.90 62.11 62.78 63.77 63.51 63.02 62.59 62.79 62.52 62.24 62.35 61.48 60.83 61.39 61.06 61.07 61.22 60.62 60.81 59.83 58.46 57.69 57.40
41.19 41.42 42.10 41.93 40.90 40.36 39.60 39.46 38.60 37.64 36.08 36.33 37.54 37.28 37.74 38.74 40.39 41.12 43.28 46.73 46.78 52.84 62.02 63.00 62.93 62.70 61.57 61.38 61.53 60.45 60.23 59.80 57.27 58.64 59.74 59.85 60.20 60.25 60.35 59.89 59.27 58.60 58.53
39.48 39.23 39.43 38.69 38.63 38.28 38.05 37.90 37.42 36.78 35.88 34.83 35.35 35.57 35.34 36.18 37.53 38.98 40.39 42.95 43.74 46.57 54.46 61.13 61.65 61.17 60.80 60.03 59.92 59.39 59.57 58.31 58.11 58.28 58.76 59.28 59.38 58.18 59.44 59.20 58.90 58.84 58.04
37.15 36.54 36.37 36.08 36.57 36.45 36.34 36.63 36.40 36.37 35.69 34.15 33.76 33.60 34.23 34.97 35.44 37.11 38.28 39.73 40.84 41.66 43.24 53.02 59.19 60.84 60.78 60.47 60.01 58.19 57.16 56.21 57.36 59.46 59.91 59.71 58.45 57.47 59.20 58.32 58.47 58.32 58.14
34.97 34.49 34.12 33.93 34.06 33.87 34.75 35.52 35.62 35.04 34.81 33.72 32.86 32.69 33.76 34.26 34.03 34.48 35.19 36.87 37.82 38.62 38.61 40.58 42.60 45.38 47.75 47.71 54.54 59.24 57.66 55.75 55.55 55.82 52.10 47.75 44.67 41.35 42.96 53.38 57.49 57.86 57.33
32.54 32.68 32.63 32.51 32.13 32.39 33.22 34.33 34.30 33.89 33.73 32.73 32.55 33.25 33.38 33.17 32.47 32.38 32.15 32.66 33.88 34.76 35.72 35.16 36.41 38.61 39.54 36.91 41.59 54.13 57.97 56.55 54.36 47.99 46.74 43.64 42.92 40.29 37.68 38.21 38.73 41.68 53.67
30.03 29.97 30.73 31.20 31.10 31.95 33.37 32.84 33.30 33.50 32.88 32.34 32.45 32.72 32.93 32.50 32.39 31.96 30.74 29.92 30.12 31.61 31.93 33.04 33.24 32.86 33.77 36.00 38.42 41.85 44.06 41.77 40.55 41.69 42.89 41.80 40.53 40.45 40.94 37.34 36.26 35.12 34.90
29.22 29.47 30.53 31.21 31.58 32.85 32.53 32.81 32.56 32.06 31.81 31.46 31.64 32.53 32.48 32.45 32.68 32.23 30.83 29.60 28.80 28.08 28.23 29.43 31.27 31.75 32.47 34.09 34.80 35.44 36.75 35.09 34.43 34.58 35.55 36.51 35.99 36.08 38.59 35.73 33.19 31.89 32.01
31.01 30.40 31.43 31.90 33.02 31.79 32.72 32.46 31.11 31.08 30.99 30.70 30.79 31.94 32.32 31.79 32.33 31.76 31.61 31.46 29.69 28.33 27.48 27.74 28.01 28.99 30.55 33.25 33.25 33.16 32.37 31.28 30.94 31.72 32.73 32.73 32.87 34.74 37.37 34.27 31.85 30.78 30.60
31.47 31.06 31.45 31.89 31.67 32.24 33.25 31.31 30.64 30.16 29.77 30.46 30.41 31.39 32.33 31.20 31.09 31.85 31.68 32.15 32.09 30.97 30.11 28.14 28.09 29.14 28.19 31.53 32.27 31.47 30.42 28.85 29.06 29.26 30.13 31.76 31.82 32.54 32.83 31.74 30.63 27.09 26.19
31.37 32.41 32.00 31.02 31.17 32.39 32.47 31.43 30.84 29.93 31.14 31.74 31.28 30.51 30.80 30.87 30.30 30.70 31.67 31.83 31.86 30.98 29.82 29.10 29.65 29.48 29.30 29.23 30.58 30.24 28.05 27.71 27.35 27.41 27.81 29.21 30.60 31.19 31.06 29.92 28.00 26.51 27.10
30.96 31.51 30.31 29.95 30.76 31.60 31.47 30.49 31.12 31.97 33.48 32.29 31.61 30.00 29.25 29.81 29.85 28.19 28.49 29.30 29.75 28.67 29.02 27.74 27.28 27.93 28.87 31.40 31.17 30.37 29.06 28.03 25.85 25.58 27.27 28.66 30.08 29.92 29.40 28.21 28.87 28.18 26.98
29.46 29.90 29.25 28.46 29.33 30.05 30.08 28.49 30.36 32.35 31.96 32.07 31.44 31.37 29.87 28.80 28.40 26.74 25.67 25.69 26.61 26.80 25.14 25.17 24.85 24.96 26.49 27.64 30.25 31.19 31.25 30.40 27.79 28.25 29.29 29.47 29.15 28.80 27.73 28.51 27.64 26.19 25.42
26.83 28.47 27.92 26.19 25.55 27.48 28.35 29.01 30.57 32.08 31.35 29.16 29.76 30.47 30.20 28.96 27.41 27.28 25.90 24.23 23.83 23.60 23.77 22.62 22.02 22.78 24.18 25.77 27.28 28.16 29.47 30.26 30.08 30.21 29.77 29.20 28.55 28.37 28.32 27.98 27.55 26.10 25.38
26.33 26.11 25.29 24.33 23.99 24.89 26.02 27.96 29.40 30.21 29.54 29.40 28.18 28.80 28.92 28.80 27.52 25.18 24.88 24.06 23.82 23.76 22.37 22.44 22.95 21.11 21.19 23.97 27.04 27.69 27.96 29.54 29.83 29.91 29.12 27.83 27.09 25.76 26.04 26.42 26.52 27.33 27.68
24.66 23.85 23.69 22.82 22.70 22.72 23.40 25.62 28.02 28.70 28.11 26.92 27.47 27.09 27.40 27.40 27.47 27.23 25.67 26.81 26.36 26.16 25.53 25.30 24.28 23.77 25.76 27.09 27.44 27.83 27.89 29.49 28.89 26.68 25.06 24.68 24.50 24.15 24.68 24.10 23.97 25.06 25.40
MSLP
1001.88 1003.33 1004.51 1005.28 1006.08 1006.86 1007.30 1007.65 1007.74 1007.89 1007.87 1007.47 1007.21 1006.88 1006.41 1005.83 1005.18 1004.77 1004.44 1004.13 1004.34 1004.81 1005.32 1005.63 1006.15 1006.58 1006.72 1007.12 1007.54 1008.23 1008.70 1009.24 1009.84 1010.86 1011.39 1011.97 1012.02 1012.39 1012.63 1013.04 1013.20 1013.56 1014.09
1002.19 1003.78 1004.97 1005.97 1006.85 1007.32 1007.78 1008.06 1008.25 1008.30 1008.38 1008.08 1007.77 1007.46 1007.18 1006.61 1005.94 1005.18 1004.47 1003.84 1003.46 1003.67 1004.56 1004.83 1005.10 1005.90 1006.35 1006.60 1006.69 1007.22 1008.25 1008.73 1009.02 1010.48 1011.45 1012.06 1012.53 1012.19 1012.34 1012.62 1012.89 1013.42 1013.92
1002.36 1004.06 1005.45 1006.77 1007.34 1007.58 1008.11 1008.42 1008.64 1008.88 1008.83 1008.53 1008.19 1007.71 1007.23 1006.57 1005.72 1005.02 1004.14 1003.46 1002.65 1002.76 1003.21 1004.13 1004.45 1004.85 1005.44 1004.08 1006.98 1007.27 1007.41 1008.05 1008.39 1009.41 1010.66 1011.50 1011.74 1011.93 1011.97 1012.07 1012.46 1012.87 1013.58
1003.17 1004.67 1006.20 1007.41 1007.63 1008.08 1008.70 1009.05 1009.15 1009.02 1008.83 1008.98 1008.90 1008.76 1008.19 1007.43 1006.73 1005.64 1004.35 1002.92 1001.97 1001.67 1001.99 1002.56 1003.29 1004.02 1004.45 1005.95 1006.31 1006.74 1007.35 1007.47 1007.87 1009.28 1009.90 1009.40 1010.50 1011.11 1011.79 1012.00 1012.06 1012.34 1012.83
1004.43 1005.67 1007.18 1007.81 1007.99 1008.64 1009.23 1009.58 1009.84 1009.70 1009.60 1009.43 1009.64 1009.53 1009.02 1008.18 1007.13 1006.06 1004.61 1003.25 1002.01 1000.56 1000.59 1000.98 1001.86 1002.59 1003.44 1004.75 1004.63 1005.49 1006.49 1007.04 1007.23 1008.34 1009.76 1009.62 1010.00 1010.18 1010.41 1011.40 1011.68 1012.09 1012.22
1005.55 1006.92 1007.58 1008.03 1008.76 1009.31 1009.77 1010.26 1010.32 1010.35 1010.30 1010.13 1010.17 1010.04 1009.37 1008.35 1007.31 1006.37 1005.02 1003.44 1001.58 1000.41 999.82 1000.27 1001.11 1001.53 1002.31 1003.23 1003.50 1003.62 1005.83 1006.24 1006.16 1006.47 1008.04 1008.60 1009.49 1009.56 1009.77 1010.24 1010.95 1011.46 1011.67
1006.10 1007.69 1008.24 1008.69 1009.46 1009.89 1010.28 1010.64 1010.55 1010.65 1010.92 1010.58 1010.55 1010.17 1009.39 1008.39 1007.25 1006.20 1005.02 1003.59 1001.65 1000.76 1000.46 998.79 1000.51 1001.00 1001.23 1002.29 1002.99 1004.00 1002.73 1004.95 1005.49 1005.66 1005.78 1007.16 1008.40 1008.99 1009.10 1009.53 1010.01 1010.83 1011.39
1007.10 1008.22 1008.81 1009.45 1010.04 1010.54 1010.74 1011.00 1010.92 1011.35 1011.50 1010.92 1010.51 1009.97 1009.15 1008.04 1006.73 1005.57 1004.38 1002.97 1001.24 1000.86 1000.20 1000.56 999.81 1000.14 1000.60 1001.96 1002.67 1003.30 1004.26 1004.06 1005.51 1005.27 1005.69 1007.14 1006.54 1008.19 1008.38 1008.75 1009.32 1010.29 1010.87
1008.19 1008.91 1009.24 1009.87 1010.52 1011.07 1011.26 1011.61 1011.96 1012.44 1011.99 1011.27 1010.66 1009.72 1008.62 1007.45 1006.33 1005.12 1003.81 1001.92 1000.53 999.78 999.05 999.39 999.29 999.47 1000.21 1001.11 1002.24 1003.47 1003.53 1003.73 1004.02 1005.15 1002.83 1006.24 1006.42 1007.32 1007.63 1008.22 1008.51 1009.04 1009.87
1008.68 1009.38 1009.97 1010.53 1011.34 1011.73 1012.02 1012.14 1012.72 1013.01 1012.15 1011.41 1010.79 1009.55 1008.42 1007.23 1006.12 1004.60 1002.87 1000.70 999.21 998.21 997.65 998.08 998.83 999.50 999.95 1000.65 1001.54 1002.00 1002.33 1002.86 1002.85 1003.80 1004.10 1004.98 1005.97 1006.44 1007.12 1007.65 1008.26 1008.29 1008.73
1010.16 1010.68 1010.66 1010.95 1011.61 1012.48 1012.71 1012.82 1012.91 1012.97 1012.27 1011.73 1010.76 1009.36 1008.43 1007.03 1005.95 1004.27 1002.90 1001.56 1000.10 997.53 997.47 997.94 998.49 998.95 999.42 1000.01 1000.54 1001.04 1001.63 1001.29 1002.14 1003.13 1003.61 1004.58 1005.05 1005.82 1006.48 1007.18 1007.71 1007.93 1008.27
1010.95 1011.45 1011.63 1011.79 1012.52 1013.17 1013.36 1013.36 1013.39 1012.95 1012.79 1012.25 1010.75 1009.55 1008.68 1007.32 1006.28 1004.72 1003.61 1002.27 1000.99 998.96 997.11 997.01 997.68 998.06 998.74 999.35 999.96 1000.33 1000.99 1001.47 1002.37 1003.42 1003.83 1003.85 1004.92 1005.35 1005.78 1006.59 1007.05 1007.32 1007.79
1012.42 1012.94 1012.87 1013.42 1014.05 1013.99 1013.98 1013.95 1013.78 1013.45 1013.19 1012.50 1011.14 1010.18 1009.08 1007.89 1006.83 1005.38 1004.21 1002.93 1001.75 1000.24 998.59 996.74 996.69 997.56 998.01 998.88 999.53 1000.11 1000.39 1000.95 1001.83 1002.07 1003.83 1002.69 1004.53 1004.97 1005.26 1005.92 1006.33 1006.78 1007.27
1013.72 1014.25 1014.43 1014.87 1014.92 1015.02 1015.21 1014.34 1014.36 1014.14 1013.66 1012.86 1011.94 1010.98 1009.97 1008.69 1007.78 1006.60 1005.28 1004.07 1002.92 1001.84 1000.69 998.92 997.50 997.45 997.91 998.54 999.06 999.94 1000.71 1001.02 1001.76 1001.41 1002.06 1002.96 1003.73 1004.24 1004.81 1005.40 1005.82 1006.42 1006.82
1014.81 1015.46 1015.80 1015.93 1016.25 1016.63 1015.56 1015.18 1015.05 1014.62 1014.15 1013.42 1012.79 1011.86 1010.71 1009.53 1008.56 1007.78 1006.50 1005.45 1004.01 1003.33 1002.69 1001.49 1000.32 1000.20 998.88 1000.47 1000.06 999.91 1000.58 1000.68 1001.23 1001.53 1001.56 1003.20 1003.89 1004.55 1004.84 1005.18 1005.60 1006.11 1006.44
1016.48 1017.24 1017.25 1017.56 1017.86 1016.97 1016.30 1016.04 1015.75 1015.36 1014.84 1014.15 1013.42 1012.53 1011.37 1010.16 1009.52 1008.95 1007.66 1006.62 1005.72 1004.58 1004.94 1003.41 1002.05 1002.71 1001.96 1001.70 1000.67 999.39 1000.53 1001.12 1001.52 1001.87 1003.14 1004.17 1004.52 1005.07 1005.56 1005.93 1005.98 1006.24 1006.53
1018.35 1018.63 1018.82 1018.70 1018.31 1017.81 1017.38 1016.91 1016.47 1016.07 1015.49 1014.98 1014.18 1013.23 1012.21 1011.18 1010.81 1009.86 1008.90 1008.40 1007.66 1006.87 1005.65 1005.41 1004.63 1004.10 1004.03 1003.01 1002.33 1000.64 1001.43 1002.16 1002.99 1004.00 1004.56 1004.90 1005.27 1005.38 1005.70 1006.36 1006.69 1007.00 1007.18
1019.61 1019.70 1019.64 1019.36 1019.04 1018.73 1018.23 1017.79 1017.24 1016.73 1016.30 1015.68 1014.96 1013.91 1013.01 1012.53 1011.80 1011.01 1010.60 1009.97 1009.45 1008.72 1007.86 1007.04 1006.68 1006.49 1005.54 1004.77 1004.32 1003.87 1003.00 1003.86 1004.79 1005.33 1005.66 1005.74 1006.18 1006.21 1006.06 1006.89 1007.32 1007.61 1007.85
1020.23 1020.40 1020.41 1020.12 1019.78 1019.38 1018.90 1018.46 1017.99 1017.44 1016.98 1016.22 1015.60 1014.80 1014.45 1013.71 1012.99 1012.31 1011.88 1011.37 1010.81 1010.35 1009.76 1009.34 1008.65 1007.71 1007.92 1006.17 1006.00 1006.29 1005.59 1005.46 1006.35 1006.74 1006.98 1006.92 1007.00 1006.95 1006.80 1007.20 1007.58 1008.24 1008.45
1020.85 1020.86 1020.82 1020.54 1020.09 1019.66 1019.32 1018.96 1018.44 1018.10 1017.55 1017.08 1016.32 1016.18 1015.52 1014.82 1014.07 1013.44 1012.84 1012.29 1011.81 1011.52 1011.13 1010.67 1010.30 1009.76 1009.11 1008.27 1008.57 1008.00 1007.72 1007.44 1007.88 1008.20 1007.96 1008.08 1007.96 1007.93 1007.94 1007.62 1007.92 1008.78 1009.52
1021.18 1021.14 1020.92 1020.52 1020.31 1019.98 1019.77 1019.27 1018.81 1018.59 1018.31 1017.60 1017.46 1017.23 1016.69 1015.94 1015.38 1014.69 1014.00 1013.60 1013.12 1012.75 1012.25 1011.90 1011.57 1011.55 1011.23 1011.00 1009.96 1009.41 1009.16 1009.43 1009.05 1009.63 1009.20 1009.13 1009.34 1009.06 1009.36 1008.91 1008.89 1009.74 1010.17
1021.37 1021.26 1021.06 1020.90 1020.82 1020.40 1019.80 1019.28 1018.86 1018.78 1018.34 1018.20 1018.02 1017.98 1017.60 1017.10 1016.60 1016.16 1015.63 1015.11 1014.47 1014.03 1013.59 1013.39 1013.11 1012.83 1012.60 1012.21 1011.92 1011.57 1010.88 1010.62 1010.52 1011.19 1011.00 1010.75 1010.70 1010.26 1010.49 1010.25 1010.53 1010.67 1010.42
1021.90 1021.71 1021.28 1021.34 1021.37 1021.07 1020.54 1019.90 1019.30 1018.75 1018.66 1018.55 1018.46 1018.30 1018.28 1017.93 1017.68 1017.34 1017.09 1016.62 1016.14 1015.65 1015.67 1015.25 1014.96 1014.62 1014.26 1013.85 1013.33 1012.94 1012.51 1011.94 1012.25 1012.38 1011.66 1012.04 1011.56 1011.48 1011.21 1011.48 1011.79 1011.73 1011.45
1022.47 1022.16 1022.08 1022.26 1022.29 1021.97 1021.50 1020.98 1020.25 1019.45 1019.22 1019.30 1019.05 1018.75 1018.57 1018.69 1018.74 1018.40 1018.34 1018.21 1017.79 1017.42 1017.10 1016.86 1016.73 1016.49 1016.00 1015.68 1015.15 1014.47 1013.88 1013.53 1013.02 1012.86 1013.47 1012.90 1012.41 1011.96 1012.55 1012.31 1012.69 1013.18 1013.24
1023.56 1023.44 1023.43 1023.44 1023.41 1023.27 1022.82 1022.16 1021.45 1020.91 1020.25 1020.03 1020.00 1019.65 1019.44 1019.29 1019.38 1019.59 1019.51 1019.33 1019.27 1019.01 1018.64 1018.41 1018.16 1017.73 1017.30 1017.20 1016.56 1015.79 1015.06 1014.45 1014.19 1013.99 1013.71 1013.29 1013.72 1013.50 1013.78 1013.43 1013.64 1014.35 1014.59
1024.49 1024.53 1024.62 1024.76 1024.79 1024.61 1024.17 1023.51 1022.81 1022.23 1021.59 1021.21 1020.95 1020.84 1020.52 1020.26 1020.03 1019.81 1019.99 1020.10 1019.94 1019.65 1019.50 1019.46 1019.19 1018.93 1018.42 1017.73 1016.96 1016.38 1015.92 1015.44 1015.16 1015.07 1015.36 1015.34 1015.17 1014.71 1015.52 1015.42 1015.26 1015.92 1015.45
Wind_Speed
15 13 10 9 7 8 8 10 9 9 9 7 7 7 7 6 5 9 12 9 11 15 14 12 12 10 10 11 10 5 9 5 4 3 3 2 2 3 4 3 4 5 5
14 12 10 9 6 6 9 9 10 11 9 8 9 8 8 9 10 11 11 13 13 16 14 14 12 12 11 13 12 13 7 5 9 5 3 2 2 3 4 5 6 7 4
14 11 8 8 6 8 8 9 10 11 10 11 9 9 9 10 10 11 11 13 16 13 14 15 12 12 10 3 11 11 14 9 8 9 5 3 5 2 3 6 5 7 5
13 11 9 7 6 10 10 10 11 12 11 13 11 14 11 12 11 14 13 12 14 15 15 18 15 13 11 13 12 10 9 9 9 6 8 3 4 4 2 2 6 7 8
11 10 8 8 11 11 10 11 12 13 14 13 12 10 13 11 11 13 19 18 16 17 16 17 17 15 11 14 14 12 11 9 8 8 4 7 5 5 3 4 3 4 6
12 9 10 11 11 11 10 11 12 14 14 12 13 14 16 16 13 14 14 14 15 12 16 17 15 15 12 12 14 14 16 16 12 11 9 7 9 7 4 3 4 7 4
12 9 11 12 11 12 12 11 13 14 14 14 14 15 15 16 18 16 14 18 16 11 15 15 13 12 13 14 13 16 17 13 13 12 11 11 10 5 6 4 3 3 2
11 11 11 11 12 12 13 14 15 15 15 15 16 15 15 10 12 15 14 14 16 13 12 25 14 15 15 15 17 14 9 10 7 10 9 9 8 8 4 4 5 3 3
11 10 11 11 12 13 13 13 14 15 15 16 15 16 14 14 13 17 16 17 20 15 12 12 11 11 14 13 11 7 10 11 12 13 14 11 9 9 5 4 4 5 5
12 11 11 11 11 12 12 12 12 15 16 17 16 13 16 14 14 13 15 15 16 18 9 9 11 13 14 14 15 12 11 12 9 9 12 12 7 7 5 4 4 4 4
12 11 11 12 13 12 12 12 13 15 16 16 17 16 16 16 15 13 16 18 20 13 12 14 15 14 14 13 14 14 13 12 8 8 11 12 12 8 8 6 4 5 5
13 13 13 14 14 13 14 14 14 16 16 16 16 18 16 16 16 15 16 16 16 17 12 14 13 16 14 13 13 13 11 11 8 5 7 8 6 10 9 8 9 8 7
13 13 14 14 13 14 13 13 14 15 16 16 17 17 18 17 18 18 17 16 16 16 17 12 11 10 14 11 12 12 13 12 11 11 8 9 10 9 7 7 8 7 5
13 13 13 13 13 14 13 14 14 14 15 16 16 16 17 17 16 17 17 16 15 15 16 16 6 7 9 13 14 12 9 9 8 10 13 10 9 8 8 8 8 7 7
12 13 13 13 14 13 13 13 13 14 15 15 15 15 16 16 17 17 17 16 15 14 15 17 15 15 13 8 5 9 11 9 8 6 10 7 10 12 8 1 5 8 8
12 12 12 13 13 14 14 13 14 14 13 14 15 15 16 17 18 16 17 17 17 17 13 16 16 14 11 27 19 6 5 3 4 9 9 6 8 9 12 10 5 4 4
10 10 11 12 13 12 13 13 13 13 13 13 15 16 15 17 16 17 18 18 18 16 17 16 15 18 17 28 25 11 9 10 10 9 6 5 6 6 5 10 10 11 11
9 10 10 11 13 11 13 12 12 13 13 13 14 16 16 15 15 16 16 16 15 17 17 18 17 13 15 27 25 19 13 13 13 11 9 8 7 6 5 6 7 9 10
8 7 9 10 7 10 11 10 12 12 13 14 15 15 15 15 14 15 15 13 14 15 17 16 18 19 18 29 26 14 11 14 15 14 13 10 8 10 7 7 8 7 8
7 8 6 6 8 8 7 10 11 12 13 14 15 14 13 15 15 13 14 11 10 12 11 16 18 25 21 33 27 15 10 13 10 11 14 23 15 15 11 8 7 8 6
8 6 7 8 10 9 7 6 7 9 8 11 12 14 15 14 15 15 13 13 12 13 14 15 14 15 20 22 31 28 13 9 10 11 11 11 23 23 20 17 10 7 5
9 9 8 9 8 9 9 11 5 2 4 6 10 11 14 12 13 16 15 15 14 14 14 14 13 13 14 23 26 28 26 19 12 9 9 13 24 25 22 16 20 17 10
8 8 8 11 11 12 13 13 14 8 9 8 9 9 10 12 12 14 14 12 13 12 12 11 11 12 12 12 22 23 21 18 11 8 17 20 22 22 19 25 21 13 9
9 10 11 13 12 12 14 13 14 14 11 12 12 9 9 8 10 9 10 10 11 11 11 11 11 10 11 11 10 9 8 10 9 9 9 10 13 16 12 11 13 10 9
7 9 10 10 12 13 14 14 15 13 12 11 11 11 10 10 7 9 8 8 10 13 10 10 9 10 10 11 17 15 9 8 9 6 7 9 9 9 9 10 10 8 6
8 8 10 10 11 12 12 14 14 14 12 11 9 10 9 9 9 9 5 15 16 20 21 21 16 8 18 19 18 20 23 17 15 8 8 8 9 10 8 7 8 6 8
Wind_Direction
118 110 87 83 46 41 27 12 4 358 350 331 327 314 303 302 259 262 242 246 201 199 210 210 219 199 204 200 180 176 171 167 156 107 97 16 32 290 166 190 150 152 195
126 108 99 74 62 37 32 9 0 358 346 333 335 318 303 295 294 297 300 261 233 205 208 215 208 204 206 199 188 176 183 172 162 164 109 182 288 219 222 185 173 171 182
118 110 83 62 42 54 31 9 1 351 343 335 327 322 313 304 273 271 274 270 229 212 197 215 211 203 198 210 214 191 180 176 165 161 148 150 217 135 202 204 171 168 183
96 84 65 49 33 43 31 10 358 348 347 346 338 327 310 294 290 293 292 272 238 214 202 202 207 198 194 196 199 213 200 174 168 164 224 192 134 186 168 241 200 179 188
83 75 60 37 43 34 20 15 1 351 346 343 338 325 305 296 293 290 290 282 278 222 206 195 202 206 201 205 192 171 193 193 167 173 185 231 251 241 151 170 190 198 195
86 64 52 41 31 26 19 14 359 348 341 336 329 312 300 294 287 284 286 283 283 257 227 201 199 198 185 194 206 183 210 192 178 168 187 191 210 218 192 160 166 206 192
80 53 39 32 23 19 14 4 359 347 335 333 322 308 296 290 283 280 273 275 276 287 271 198 191 189 179 187 201 200 213 189 188 184 186 187 212 228 216 182 156 146 132
76 58 46 34 18 13 13 8 359 341 336 334 324 312 300 288 284 276 267 266 266 269 201 219 195 185 177 193 196 208 201 166 210 189 185 216 184 219 203 186 152 162 150
63 52 42 35 24 15 13 12 3 342 332 330 324 317 307 305 298 292 274 260 257 256 219 204 202 190 190 188 176 203 218 218 199 233 165 221 196 212 193 198 169 163 171
50 40 36 36 31 19 11 11 5 347 337 333 328 322 316 316 306 304 310 309 244 246 221 202 204 202 200 186 195 194 205 201 190 198 194 196 191 197 199 189 190 189 168
38 29 28 35 35 17 9 7 358 357 347 338 332 334 331 329 325 336 335 334 322 248 219 200 197 198 190 189 197 198 195 197 196 198 204 203 193 189 192 195 183 183 163
32 24 21 24 23 14 1 7 359 358 351 339 339 344 339 339 333 349 341 334 326 330 248 221 194 191 187 183 185 180 181 194 177 230 212 188 213 193 186 190 198 197 191
29 21 20 18 11 9 2 3 1 356 354 345 348 348 350 349 346 349 348 349 346 349 336 268 197 194 177 185 185 197 185 185 190 161 245 188 192 195 181 196 189 185 188
28 20 14 11 9 6 356 3 360 357 354 352 351 352 351 356 351 353 355 354 357 4 355 350 320 179 199 197 188 201 201 208 207 181 183 176 181 184 186 186 192 195 194
23 17 10 9 5 357 359 2 2 1 356 357 354 356 354 1 4 359 2 359 12 15 9 7 24 16 31 6 278 173 199 214 195 78 79 74 86 77 66 87 201 208 211
20 13 12 10 1 1 360 3 4 5 360 359 359 359 4 7 8 3 11 10 13 22 19 32 28 15 18 356 332 206 152 140 138 90 76 77 75 81 79 67 36 18 251
26 18 12 14 7 4 359 6 7 5 8 2 3 7 9 15 9 11 17 18 14 14 24 30 25 26 19 10 4 60 84 75 61 68 85 88 59 56 77 70 62 45 17
35 25 19 15 16 9 8 12 11 13 11 10 9 11 12 14 13 18 21 23 22 25 25 26 25 34 24 23 12 15 72 78 64 55 47 54 50 33 87 98 84 65 45
36 45 25 14 17 18 13 16 16 18 14 17 13 12 11 12 15 18 19 25 31 34 33 31 29 28 27 34 31 26 49 62 63 58 50 45 43 39 93 106 93 75 48
44 41 27 16 16 11 10 15 29 23 22 19 22 14 12 17 17 16 15 15 23 33 38 43 38 33 30 34 31 42 33 59 57 52 55 50 50 52 56 79 94 78 36
46 49 30 34 24 10 356 5 24 31 20 28 32 24 18 24 21 20 17 19 24 32 33 35 33 39 39 36 42 40 44 45 54 43 52 52 56 60 60 67 69 77 73
51 39 41 38 30 17 15 17 23 341 12 29 35 38 31 28 27 25 23 19 25 26 26 29 32 28 23 34 43 47 51 46 56 50 41 60 61 64 63 62 64 68 69
41 46 50 46 30 25 20 19 6 42 31 33 35 37 45 35 33 34 28 25 23 25 28 26 26 25 20 19 21 26 31 41 57 56 60 61 61 60 59 59 56 50 58
37 38 43 41 34 23 23 17 14 11 36 32 17 31 36 56 36 34 38 33 30 26 23 33 27 23 24 21 13 12 14 26 36 40 43 43 52 56 54 61 57 47 49
43 45 40 39 31 28 19 18 12 17 19 29 30 17 21 23 75 61 41 50 48 47 33 25 28 25 25 18 24 24 17 22 23 35 37 41 42 46 42 47 47 37 55
55 50 46 37 32 27 21 11 14 13 19 17 22 22 17 20 21 22 73 61 65 60 55 45 43 24 29 23 26 33 33 35 37 42 39 40 37 40 41 43 52 39 37